Home > Weather > Funchal > Past weeks

Flag for Portugal Past Weather in Funchal, Madeira, Portugal — Yesterday and Last 2 Weeks

Now
68 °F

Passing clouds.


Feels Like: 68 °F
Forecast: 67 / 75 °F
Wind: 18 mph from North

Location: Aeroporto Da Madeira

Current Time: Jun 29, 2016 at 4:50:10 AM

Latest Report: Jun 29, 2016 at 4:00 AM


Visibility: N/A

Pressure: 30.15 "Hg

Humidity: 78%

Dew Point: 61 °F

Location of FunchalLocation

Past Weather in Funchal — Graph

°F

Funchal Temperature Yesterday

Maximum temperature yesterday: 75 °F (at 2:30 PM)
Minimum temperature yesterday: 66 °F (at 11:30 PM)
Average temperature yesterday: 70 °F

High & Low Weather Summary for the Past Weeks

 TemperatureHumidityPressure
High77 °F (Jun 14, 5:00 PM)88% (Jun 14, 4:00 AM)30.36 "Hg (Jun 14, 4:00 AM)
Low64 °F (Jun 16, 8:30 AM)50% (Jun 15, 7:00 PM)30.01 "Hg (Jun 22, 3:00 AM)
Average70 °F66%30.17 "Hg
* Reported Jun 14 3:00 AM — Jun 29 3:30 AM, Funchal, Weather by CustomWeather, © 2016

Note: Actual official high and low records may vary slightly from our data, if they occured in-between our weather recording intervals... More about our weather records

Advertising

Funchal Weather History for the Previous 24 Hours

Scroll right to see more
 ConditionsComfort  
Time TempWeatherWind HumidityBarometerVisibility
3:30 AM
Wed, Jun 29
68 °FPassing clouds.17 mph78%30.15 "HgN/A
3:00 AM68 °FPassing clouds.17 mph78%30.15 "HgN/A
2:30 AM68 °FPassing clouds.16 mph78%30.15 "HgN/A
2:00 AM66 °FPassing clouds.14 mph83%30.15 "HgN/A
1:30 AM66 °FPassing clouds.18 mph83%30.18 "HgN/A
1:00 AM68 °FPassing clouds.18 mph73%30.15 "HgN/A
12:30 AM68 °FPassing clouds.22 mph78%30.15 "HgN/A
12:00 AM68 °FPassing clouds.22 mph78%30.15 "HgN/A
11:30 PM
Tue, Jun 28
66 °FPassing clouds.22 mph83%30.15 "HgN/A
11:00 PM68 °FPassing clouds.20 mph73%30.15 "HgN/A
10:30 PM68 °FPassing clouds.23 mph73%30.15 "HgN/A
10:00 PM68 °FScattered clouds.28 mph78%30.12 "HgN/A
9:30 PM70 °FScattered clouds.25 mph73%30.12 "HgN/A
9:00 PM70 °FPassing clouds.22 mph73%30.12 "HgN/A
8:30 PM70 °FPassing clouds.21 mph69%30.12 "HgN/A
8:00 PM72 °FPassing clouds.21 mph65%30.12 "HgN/A
7:30 PM73 °FPassing clouds.17 mph57%30.12 "HgN/A
7:00 PM73 °FPassing clouds.22 mph61%30.12 "HgN/A
6:30 PM73 °FScattered clouds.22 mph61%30.12 "HgN/A
6:00 PM73 °FScattered clouds.20 mph61%30.12 "HgN/A
5:30 PM75 °FScattered clouds.16 mph57%30.15 "HgN/A
5:00 PM73 °FScattered clouds.15 mph61%30.15 "HgN/A
4:30 PM73 °FScattered clouds.13 mph61%30.15 "HgN/A
4:00 PM73 °FScattered clouds.16 mph65%30.15 "HgN/A
3:30 PM73 °FScattered clouds.18 mph61%30.15 "HgN/A
3:00 PM75 °FScattered clouds.20 mph57%30.15 "HgN/A
2:30 PM75 °FScattered clouds.16 mph54%30.15 "HgN/A
2:00 PM73 °FScattered clouds.17 mph61%30.15 "HgN/A
1:30 PM73 °FScattered clouds.18 mph61%30.15 "HgN/A
1:00 PM70 °FPartly sunny.13 mph73%30.15 "HgN/A
12:30 PM72 °FPartly sunny.18 mph65%30.15 "HgN/A
12:00 PM72 °FPartly sunny.20 mph69%30.15 "HgN/A
11:30 AM73 °FScattered clouds.17 mph65%30.15 "HgN/A
11:00 AM72 °FScattered clouds.16 mph65%30.15 "HgN/A
10:30 AM72 °FScattered clouds.17 mph65%30.15 "HgN/A
10:00 AM70 °FScattered clouds.14 mph69%30.15 "HgN/A
9:30 AM72 °FScattered clouds.15 mph65%30.12 "HgN/A
9:00 AM70 °FPassing clouds.22 mph69%30.12 "HgN/A
8:30 AM70 °FPassing clouds.23 mph69%30.09 "HgN/A
8:00 AM68 °FPassing clouds.18 mph73%30.09 "HgN/A
7:30 AM68 °FPassing clouds.20 mph73%30.12 "HgN/A
7:00 AM68 °FPassing clouds.15 mph73%30.12 "HgN/A
6:30 AM68 °FPassing clouds.15 mph73%30.12 "HgN/A
6:00 AM68 °FPassing clouds.15 mph73%30.09 "HgN/A
5:30 AM68 °FPassing clouds.17 mph69%30.09 "HgN/A
5:00 AM68 °FPassing clouds.14 mph69%30.09 "HgN/A
4:30 AM68 °FPassing clouds.17 mph73%30.09 "HgN/A
4:00 AM68 °FPassing clouds.15 mph69%30.12 "HgN/A
Weather by CustomWeather, © 2016

See weather overviewHow to use our weather pages